Location: Korpysy
(51.4914°N, 17.9405°E)
Time: 16:21:31
(UTC+00:00)

Daily predictions for brighter satellites

Satellite Brightness Start Highest point End
(mag) Time Altitude Azimuth Time Altitude Azimuth Time Altitude Azimuth
Cosmos 1745 Rocket 4.1 19:42:20 10° S 19:48:33 88° E 19:54:52 10° N
Landsat 7 3.9 19:44:28 10° SSE 19:49:13 89° ENE 19:54:01 10° NNW
CZ-4C R/B 4.5 19:49:57 10° WNW 19:55:14 29° N 20:01:23 10° ENE
USA 267 3.5 19:49:12 10° ESE 19:55:45 74° NNE 20:02:19 10° WNW
SPOT 1/Viking Rocket 3.6 19:52:27 10° SSE 19:57:36 88° ENE 20:02:49 10° NNW
Alouette 2 Rocket 3.5 19:56:30 10° NNW 20:00:13 86° WSW 20:05:03 10° SSE
Cosmos 1953 Rocket 3.8 19:57:32 10° S 20:01:42 50° E 20:05:55 10° NNE
Cosmos 2322 Rocket 2.9 19:57:56 10° SW 20:03:29 60° NW 20:09:05 10° NNE
NOSS 7 (D) 3.6 20:02:40 10° SW 20:05:26 82° SE 20:08:07 10° NE
Cosmos 2237 4.3 20:00:23 10° SSW 20:06:08 90° SE 20:11:56 10° NNE
Cosmos 2084 3.6 20:02:29 10° NW 20:06:58 77° NE 20:11:25 10° SE
Cosmos 1842 Rocket 4.4 20:03:48 10° N 20:07:51 36° ENE 20:11:51 10° SE
Cosmos 1328 3.8 20:04:05 10° S 20:08:03 84° E 20:12:03 10° NNE
SAR-Lupe-2 3.7 20:05:15 10° NNE 20:08:49 59° ESE 20:12:21 10° S
Cosmos 1455 3.6 20:07:36 10° NNW 20:11:10 36° W 20:14:42 10° SSW
Cosmos 1825 Rocket 3.7 20:12:59 10° SSW 20:17:25 80° W 20:21:56 10° N
ATLAS CENTAUR R/B 1.0 20:15:12 10° NW 20:18:56 89° NE 20:22:16 12° SE
Cosmos 1703 3.8 20:18:11 10° SSW 20:22:01 61° WNW 20:25:54 10° N
COSMOS 2428 3.1 20:17:57 10° S 20:23:18 44° ESE 20:28:39 10° NE
Cosmos 1844 4.4 20:18:05 10° NW 20:23:41 52° WSW 20:29:11 10° S
NOSS 3-4 (A) 4.3 20:17:16 10° NW 20:23:56 58° NE 20:31:19 10° ESE
NOSS 3-4 (C) 4.3 20:17:23 10° NW 20:24:02 58° NE 20:31:25 10° ESE
SL-24 R/B - RUBIN 2 4.5 20:20:12 10° SSW 20:26:16 68° SE 20:32:54 10° NE
Cosmos 2322 3.7 20:21:27 10° SSW 20:27:09 73° ESE 20:32:53 10° NNE
Meteor 1-27 4.3 20:24:21 10° NNW 20:30:06 86° ENE 20:35:46 11° SSE
Cosmos 1869 3.8 20:26:42 10° N 20:30:33 46° ENE 20:33:50 14° SSE
Cosmos 1709 Rocket 4.2 20:27:20 10° SSW 20:33:39 79° W 20:40:04 10° N
NOSS 3-3 (A) 4.1 20:30:06 10° SSW 20:35:46 50° ESE 20:42:09 10° NE
NOSS 3-3 (C) 4.2 20:30:13 10° SSW 20:35:53 50° ESE 20:42:16 10° NE
Terra 1.8 20:31:40 11° SSE 20:36:11 89° E 20:40:58 10° NNW
Cosmos 2237 Rocket 3.4 20:33:12 12° SSE 20:37:08 25° ESE 20:41:40 10° NE
CARTOSAT-1 4.0 20:33:09 10° S 20:37:24 58° W 20:41:41 10° NNW
Atlas Centaur 2 4.4 20:35:52 10° SSW 20:37:24 11° S 20:38:47 10° S
Cosmos 2333 4.2 20:33:18 10° SSW 20:38:57 84° ESE 20:44:43 10° NNE
Cosmos 2219 Rocket 2.2 20:33:49 10° SSW 20:39:19 62° ESE 20:44:52 10° NE
Cosmos 2360 Rocket 2.9 20:35:50 10° SW 20:41:23 58° NW 20:47:00 10° NNE
Cosmos 1538 Rocket 4.1 20:36:48 10° S 20:42:06 65° ESE 20:47:23 10° NNE
Meteor 2-2 Rocket 4.4 20:42:19 10° N 20:48:11 74° ENE 20:53:04 15° SSE
Cosmos 2184 Rocket 4.2 20:42:25 11° S 20:48:15 58° E 20:54:26 10° NNE
Cosmos 2333 Rocket 2.2 20:43:26 10° SSW 20:49:07 77° ESE 20:54:53 10° NNE
Cosmos 1315 Rocket 3.2 20:46:33 10° NNW 20:50:37 61° W 20:54:13 13° S
ATLAS 2AS CENTAUR R/B 3.1 20:44:15 10° NW 20:52:00 71° NE 20:59:01 10° SE
Resurs 01 Rocket 4.3 20:51:29 10° WSW 20:53:06 12° W 20:54:42 10° WNW
Cosmos 1818 4.3 20:51:32 10° WSW 20:56:54 58° NW 21:02:18 10° NE
Cosmos 2221 2.5 20:54:39 10° N 20:59:05 88° W 21:02:29 16° S
Cosmos 773 Rocket 4.4 20:53:53 10° SW 20:59:09 68° WNW 21:04:28 10° NNE
GEOS 3 Rocket 4.0 20:56:07 10° NE 21:01:31 72° NW 21:06:53 10° SW
ERS-1 Rocket 4.1 20:57:17 10° SSW 21:01:59 39° W 21:06:43 10° NNW
USA 215 3.2 20:58:11 10° ENE 21:04:44 67° SE 21:11:15 10° SW
EO 1 Del DPAF 4.4 21:05:01 10° NE 21:08:15 27° E 21:10:00 19° SE
Cosmos 2278 Rocket 2.2 21:03:05 10° NNW 21:08:48 79° WSW 21:13:09 18° SSE
Cosmos 1892 2.9 21:07:01 19° SSE 21:09:29 53° E 21:13:12 10° NNE
ATLAS 5 CENTAUR R/B 2.7 21:09:24 10° WSW 21:13:35 50° NW 21:18:24 10° NE
Cosmos 1606 4.4 21:11:38 10° NNE 21:14:50 24° ENE 21:17:19 14° ESE
Aureole 2 Rocket 3.8 21:12:55 10° N 21:15:15 23° ENE 21:17:00 14° ESE
Cosmos 158 Rocket 4.4 21:13:11 18° SSE 21:16:19 40° ESE 21:20:54 10° NE
Cosmos 1943 Rocket 3.8 21:11:50 10° NNW 21:16:43 29° NE 21:21:35 10° E
SPOT 5 4.3 21:14:18 10° SSW 21:18:46 32° W 21:23:03 10° NNW
SL-16 R/B 3.6 21:18:56 16° SE 21:21:31 21° E 21:25:41 10° NE
Lacrosse 5 rocket 2.8 21:18:19 10° WNW 21:22:14 38° N 21:25:56 10° ENE
Spot 4 4.0 21:20:00 19° SSE 21:23:22 68° ENE 21:28:08 10° N
Cosmos 2056 Rocket 3.8 21:18:11 10° NNW 21:23:35 65° ENE 21:27:39 18° SE
Nadezhda 3 Rocket 4.1 21:17:54 10° N 21:24:19 86° ENE 21:29:11 18° S
Cosmos 2058 2.8 21:25:00 18° S 21:27:59 84° ESE 21:32:09 10° NNE
Cosmos 2154 Rocket 4.0 21:23:03 16° S 21:28:04 73° E 21:34:17 10° NNE
Cosmos 1408 2.7 21:29:05 25° SSE 21:30:58 57° E 21:34:29 10° NNE
Cosmos 2341 Rocket 4.5 21:26:53 18° SSE 21:31:10 46° E 21:37:03 10° NNE
Meteor 2-17 Rocket 4.5 21:27:25 13° SSW 21:32:53 84° W 21:39:00 10° N
In-Cosmos 22 Rocket 4.1 21:29:55 14° SSW 21:34:27 86° WNW 21:39:50 10° NNE
Cosmos 2074 Rocket 4.3 21:29:16 10° SSW 21:35:28 68° WNW 21:41:42 10° N
TSX-5 4.4 21:32:13 10° NW 21:35:30 40° WSW 21:37:36 22° S
USA 267 3.5 21:34:05 18° SSE 21:38:59 54° SW 21:45:25 10° WNW
Cosmos 1076 Rocket 3.5 21:36:09 19° SSW 21:39:12 85° W 21:43:31 10° N
Cosmos 1680 Rocket 3.5 21:35:42 16° S 21:39:53 69° ESE 21:45:12 10° NNE
CZ-4C R/B 3.9 21:39:06 10° NW 21:45:24 44° NNE 21:52:48 10° E
EO 1 Delta rocket 4.2 21:43:31 10° NNE 21:48:31 77° E 21:52:51 19° S
COSMOS 2455 3.6 21:43:13 10° NNW 21:49:06 50° NE 21:54:58 10° ESE
Cosmos 2151 3.2 21:47:18 25° SSE 21:49:38 57° E 21:53:51 10° NNE
SL-8 Rocket 4.4 21:46:21 20° SSE 21:50:22 48° E 21:56:15 10° NNE
Cosmos 1452 Rocket 4.4 21:45:30 10° NNW 21:50:33 44° ENE 21:54:48 14° SE
Helios 1A 4.2 21:48:16 16° ESE 21:51:03 33° ENE 21:54:48 10° N
ATLAS CENTAUR R/B 3.4 21:55:51 10° W 21:57:10 12° WSW 21:58:26 10° SW
Cosmos 923 Rocket 4.2 21:52:20 11° SSW 21:57:28 72° WNW 22:02:47 10° NNE
Cosmos 1825 2.1 21:58:08 27° S 22:00:05 83° E 22:03:54 10° NNE
Cosmos 1933 3.8 21:56:20 10° N 22:00:17 51° ENE 22:02:24 25° SE
ALOS 2 2.6 21:58:03 25° SSE 22:00:36 78° ENE 22:05:00 10° NNW
Cosmos 1151 Rocket 3.3 21:56:31 10° N 22:00:49 58° ENE 22:03:13 25° SSE
Cosmos 1340 3.9 21:59:38 22° SE 22:01:01 28° E 22:04:16 10° NNE
Cosmos 2369 Rocket 3.4 21:56:03 10° NNW 22:01:14 37° NE 22:06:26 10° ESE
Cosmos 1980 3.7 21:56:54 11° SSW 22:02:23 84° WNW 22:08:05 10° NNE
APEX 3.6 22:01:14 10° NNW 22:03:50 35° NE 22:05:07 22° ESE
Cosmos 44 3.7 22:05:15 27° SSE 22:06:48 36° ESE 22:10:51 10° NE
COSMOS 2428 3.9 22:02:16 10° WSW 22:07:38 42° NW 22:13:02 10° NNE
Cosmos 371 Rocket 3.4 22:03:48 10° NNW 22:08:41 71° ENE 22:11:47 22° SE
GP-B 3.2 22:04:34 10° N 22:09:01 67° E 22:11:23 27° SSE
Cosmos 1624 Rocket 4.3 22:08:52 10° NNW 22:13:59 54° WSW 22:16:57 24° S
Terra 4.2 22:12:07 10° WSW 22:14:37 14° W 22:17:08 10° NW
NOSS 0 Rocket 4.3 22:08:48 10° SW 22:14:55 66° NW 22:21:07 10° NNE
NOSS 3-4 (A) 4.2 22:08:16 10° NW 22:14:56 50° WSW 22:19:46 21° S
NOSS 3-4 (C) 4.2 22:08:22 10° NW 22:15:03 50° WSW 22:19:55 21° S
Nimbus 7 Rocket 4.4 22:12:22 10° NNE 22:18:21 78° ESE 22:22:22 22° S
SL-4 R/B 0.8 22:19:54 53° ENE 22:19:54 53° ENE 22:21:53 10° N
Cosmos 2237 Rocket 2.5 22:15:03 10° SW 22:20:44 69° NW 22:26:27 10° NNE
Genesis I 3.1 22:18:36 18° SW 22:21:23 90° S 22:25:19 10° NE
Cosmos 1782 3.8 22:17:41 10° N 22:21:25 38° ENE 22:23:34 21° SE
CREW DRAGON DEMO-1 DEB 3.3 22:22:53 39° SE 22:22:53 39° SE 22:25:33 10° E
IRIDIUM 106 4.4 22:19:31 25° S 22:22:38 75° E 22:27:51 10° N
Cosmos 2344 3.5 22:16:07 10° SSW 22:23:32 74° SE 22:31:48 10° NE
Cosmos 2219 Rocket 3.9 22:18:43 10° WSW 22:23:40 32° NW 22:28:41 10° NNE
Thor Agena Rocket 4.2 22:24:08 10° N 22:29:07 52° WNW 22:33:18 14° SW
Cosmos 1346 Rocket 3.7 22:28:04 25° SE 22:29:36 36° E 22:33:15 10° NNE
Cosmos 2333 Rocket 4.2 22:29:08 10° W 22:34:00 28° NW 22:38:55 10° NNE
RESURS DK-1 3.6 22:35:42 10° NNW 22:39:35 38° NE 22:43:23 10° ESE
Cosmos 1515 Rocket 3.5 22:36:38 10° N 22:41:02 84° E 22:43:15 28° SSE
BREEZE-M DEB (TANK) 3.1 22:39:42 10° W 22:41:22 20° WSW 22:41:22 20° WSW
EP 3 4.2 22:42:46 53° NNE 22:42:46 53° NNE 22:44:26 10° NE
ATLAS 2AS CENTAUR R/B 3.5 22:35:47 10° NW 22:42:34 38° WSW 22:46:25 22° SSW
Cosmos 1766 Rocket 3.9 22:44:24 24° SSW 22:46:56 60° WNW 22:51:19 10° N
USA 215 3.7 22:41:18 10° ENE 22:47:48 66° NNW 22:54:17 10° W
Cosmos 1328 Rocket 3.9 22:44:09 10° NNW 22:48:21 52° W 22:50:25 27° SSW
Aureole 2 Rocket 3.6 22:46:30 10° NW 22:48:46 21° WSW 22:48:59 21° WSW
Okean 3 Rocket 4.2 22:47:02 21° SW 22:49:47 50° WNW 22:54:08 10° N
Gbstr 26 Del rocket 3.6 22:49:27 29° SSE 22:49:48 30° SE 22:53:30 10° E
Cosmos 1606 3.8 22:47:05 10° NNW 22:50:39 35° W 22:52:19 24° SW
Cosmos 2278 Rocket 4.2 22:48:54 10° WNW 22:51:57 15° W 22:54:58 10° SW
Cosmos 2297 4.3 22:48:46 10° NW 22:54:11 44° WSW 22:57:11 24° SSW
Cosmos 304 Rocket 3.7 22:50:16 10° NNW 22:55:09 89° ENE 22:58:04 24° SSE
Cosmos 2218 Rocket 4.1 22:50:54 22° SSW 22:55:16 76° W 23:01:36 10° N
Cosmos 2228 Rocket 3.3 22:52:06 10° N 22:56:42 69° ENE 22:59:19 25° SSE
Cosmos 1943 4.4 22:56:06 19° SSE 22:58:57 28° ESE 23:03:42 10° NE
ATLAS 5 CENTAUR R/B 4.4 22:55:36 10° WNW 22:59:21 23° N 23:03:33 10° NE
Cosmos 2366 rocket 4.2 22:56:35 21° SSW 23:00:58 73° WNW 23:07:20 10° N
Cosmos 1943 Rocket 2.2 22:55:21 10° NNW 23:01:02 74° WSW 23:04:40 23° SSE
Lacrosse 5 rocket 1.3 22:57:45 10° WNW 23:01:47 78° NNE 23:05:36 10° ESE
Landsat 4 3.7 22:58:35 10° NNE 23:02:22 70° ESE 23:03:59 32° S
Cosmos 1633 2.5 23:01:11 35° S 23:02:35 78° E 23:06:14 10° NNE
SL-16 R/B 2.3 23:00:46 19° SW 23:05:01 79° WNW 23:10:45 10° NNE
Cosmos 1821 Rocket 4.2 23:05:52 22° SSE 23:09:48 62° E 23:15:49 10° NNE
YAOGAN 11 4.4 23:09:09 28° SSW 23:11:14 55° W 23:15:37 10° NNW
Cosmos 1743 Rocket 3.5 23:12:36 29° S 23:14:47 87° E 23:19:10 10° N
Sich 1 4.1 23:15:28 20° SE 23:17:49 34° E 23:21:45 10° NNE
Cosmos 332 Rocket 4.4 23:14:46 10° NW 23:19:17 41° WSW 23:21:28 25° SSW
Cosmos 1331 Rocket 4.1 23:14:19 10° NNW 23:19:40 81° ENE 23:23:39 18° SSE
Cosmos 1048 Rocket 4.0 23:19:32 25° SSW 23:22:41 74° ESE 23:27:56 10° NNE
Meteor 2-3 Rocket 4.1 23:21:02 20° SW 23:24:52 58° WNW 23:30:32 10° N
Helios 1A 4.1 23:24:53 23° SW 23:26:36 31° W 23:30:21 10° NNW
Meteor 1-29 3.7 23:24:37 10° NNE 23:27:51 41° E 23:29:10 27° SSE
Cosmos 405 3.7 23:24:36 10° NNW 23:27:56 39° W 23:29:08 29° SW
Meteor 1-10 Rocket 4.2 23:26:25 10° NNW 23:32:03 89° W 23:35:50 21° S
Cosmos 1452 Rocket 4.4 23:27:51 10° NW 23:32:35 34° WSW 23:35:06 22° SSW
PSLV R/B 3.5 23:30:02 10° NNE 23:34:16 85° WNW 23:36:34 27° SSW
Meteor 2-6 Rocket 4.1 23:28:58 10° NNW 23:34:29 73° W 23:37:54 23° S
CZ-4C R/B 2.9 23:27:36 10° NW 23:34:37 80° SW 23:42:49 10° SE
Cosmos 389 Rocket 3.5 23:31:25 10° N 23:34:48 42° ENE 23:37:05 18° SE
COSMOS 2455 3.3 23:29:21 10° NW 23:35:01 43° WSW 23:38:24 23° S
Cosmos 1340 4.2 23:34:23 16° WSW 23:36:35 28° WNW 23:39:53 10° N
Cosmos 1110 Rocket 4.0 23:31:30 10° NNW 23:36:46 70° WSW 23:40:16 22° S
SL-16 R/B 3.3 23:32:22 10° SE 23:38:21 52° ENE 23:44:23 10° N
Cosmos 1603 3.9 23:36:25 23° S 23:39:56 64° ESE 23:45:36 10° NE
IRAS Rocket 4.5 23:37:09 14° SSE 23:41:57 69° ENE 23:47:25 10° NNW
Resurs 1-4 Rocket 3.5 23:40:01 10° NNE 23:44:42 30° E 23:48:44 13° SSE
Cosmos 2369 Rocket 2.5 23:40:04 10° NW 23:45:27 49° WSW 23:48:49 22° S
Cosmos 1666 Rocket 4.3 23:44:14 20° SSE 23:46:57 46° E 23:51:11 10° NNE
Cosmos 1500 Rocket 4.1 23:44:49 22° SW 23:47:22 49° WNW 23:51:39 10° N
Cosmos 44 4.1 23:43:47 10° WSW 23:47:57 42° NW 23:52:15 10° NNE
SeaSat 1 3.5 23:43:55 10° NE 23:48:26 34° ESE 23:51:20 19° SSE
ISS -2.2 23:51:00 21° SE 23:51:00 21° SE 23:53:35 10° E
Helios 1B rocket 2.6 23:48:56 10° N 23:53:03 66° WNW 23:55:23 24° SSW
ADEOS II 4.3 23:52:31 10° NE 23:55:47 16° E 23:59:02 10° SE
